This is the latest recevied weather packets stored in our database for station/object K7SPS-10. If no packets are shown the sender has not sent any weather packets the latest 10 day(s).
| Time | Temp. | Humidity | Pressure | Rain* | Wind** | Luminosity | Snow |
|---|---|---|---|---|---|---|---|
| 1777568701 | 17.22° C | 48% | 1022.6 hPa | 0 mm | - | 620 W/m² | - |
| 1777568399 | 16.67° C | 49% | 1022.8 hPa | 0 mm | - | 608 W/m² | - |
| 1777568096 | 16.67° C | 48% | 1022.6 hPa | 0 mm | - | 594 W/m² | - |
| 1777567792 | 16.11° C | 50% | 1022.8 hPa | 0 mm | - | 582 W/m² | - |
| 1777567489 | 15.56° C | 48% | 1022.7 hPa | 0 mm | - | 570 W/m² | - |
| 1777567186 | 15.56° C | 49% | 1022.6 hPa | 0 mm | - | 559 W/m² | - |
| 1777566884 | 15.56° C | 49% | 1022.5 hPa | 0 mm | - | 548 W/m² | - |
| 1777566582 | 15° C | 53% | 1022.9 hPa | 0 mm | - | 537 W/m² | - |
| 1777566279 | 14.44° C | 51% | 1022.6 hPa | 0 mm | - | 524 W/m² | - |
| 1777565977 | 14.44° C | 52% | 1022.7 hPa | 0 mm | - | 510 W/m² | - |
| 1777565671 | 13.33° C | 54% | 1022.7 hPa | 0 mm | - | 498 W/m² | - |
| 1777565369 | 13.89° C | 54% | 1022.8 hPa | 0 mm | - | 436 W/m² | - |
| 1777565064 | 13.89° C | 55% | 1022.9 hPa | 0 mm | - | 468 W/m² | - |
| 1777564760 | 13.33° C | 54% | 1022.7 hPa | 0 mm | - | 345 W/m² | - |
| 1777564455 | 13.33° C | 55% | 1022.9 hPa | 0 mm | - | 402 W/m² | - |
| 1777564151 | 12.78° C | 58% | 1022.8 hPa | 0 mm | - | 421 W/m² | - |
| 1777563848 | 12.78° C | 59% | 1022.9 hPa | 0 mm | - | 407 W/m² | - |
| 1777563544 | 12.78° C | 60% | 1022.8 hPa | 0 mm | - | 389 W/m² | - |
| 1777563244 | 12.22° C | 59% | 1023 hPa | 0 mm | - | 376 W/m² | - |
| 1777562941 | 11.67° C | 63% | 1023.1 hPa | 0 mm | - | 326 W/m² | - |
| 1777562636 | 11.11° C | 62% | 1022.9 hPa | 0 mm | - | 312 W/m² | - |
| 1777562336 | 10.56° C | 62% | 1023 hPa | 0 mm | - | 258 W/m² | - |
| 1777562032 | 10° C | 64% | 1023 hPa | 0 mm | - | 109 W/m² | - |
| 1777561729 | 10° C | 67% | 1022.9 hPa | 0 mm | - | 131 W/m² | - |
| 1777561425 | 9.44° C | 67% | 1023.1 hPa | 0 mm | - | 65 W/m² | - |
* Rain latest hour (hover to see other rain measurements)
** Current wind speed in m/s (hover to see current wind gust speed)